Location: Hilton Head Island
(32.2163°N, 80.7526°W)
Time: 18:39:25
(UTC-04:00)

A-11 Canister half - Pass Details

Date: 24 February 2026
Orbit: 1525 x 1683 km, 47.3° (Epoch: 10 March)

Event Time Altitude Azimuth Distance (km) Brightness Sun altitude
Rises 19:59:15 0° 306° (NW) 4,685 12.5 -22.4°
Reaches altitude 10° 20:02:28 10° 312° (NW) 3,694 11.7 -23.1°
Maximum altitude 20:11:24 49° 26° (NNE) 1,895 9.3 -25.0°
Enters shadow 20:14:10 39° 69° (ENE) 2,140 9.3 -25.5°
